Weather in Belokurikha

Russia / Altai Krai     51°59′45″N   84°59′02″E
temp.,
°C
wind,
m/s
gust,
m/s
humid.,
%
clouds,
%
prec.,
mm/h
press.,
hPa
HPBL,
m
14 may, fri
fri1401:00+8sw238758 3.4 101455
04:00+7wsw229099 0.0 101417
07:00+8wsw239080 0.0 1016124
10:00+14w236758 0.0 1016682
13:00+16wnw445916 0.5 10171400
16:00+17nw4555100 1.6 10181606
19:00+15nnw25656 2.1 1020432
22:00+11w007092 0.1 102310
15 may, sat
sat1501:00+9sw1174100 0.1 102510
04:00+7s1179100 0.0 102511
07:00+9s117872 0.0 102630
10:00+15ene11535 0.0 1025684
13:00+19nne21365 0.0 10231214
16:00+19n22389 0.0 10221308
19:00+18n0150100 0.0 1022424
22:00+13s226391 0.0 102220
16 may, sun
sun1601:00+11s22684 0.0 102218
04:00+10s33725 0.0 102036
07:00+12s337148 0.0 102067
10:00+20ssw244295 0.0 1018620
13:00+23w463842 0.0 10171699
16:00+23w674282 0.0 10151621
19:00+22sw48540 0.0 1014696
22:00+17sw4106687 0.6 1015275
17 may, mon
mon1701:00+13sw2284100 1.1 101424
04:00+13s3586100 0.6 101399
07:00+14wsw25895 1.3 1014145
10:00+18w686835 0.2 10141135
13:00+20nw685861 0.4 10151687
16:00+19nw466382 0.7 10161329
19:00+17wnw2471100 1.1 1016390
22:00+13s118312 0.3 101711
18 may, tue
tue1801:00+12ssw22895 0.3 101728
04:00+11s34885 0.0 101653
07:00+13s34815 0.0 101496
10:00+21sw364476 0.0 1012551
13:00+24wsw6104296 0.0 10111489
16:00+25w710468 0.0 10092054
19:00+18w257573 1.8 1008110
22:00+16sw61575100 0.6 1009520